Change the Weather History Date:

Monday, October 24, 2011

  Actual Average Record
Temperature  
Mean Temperature 40 °F 41 °F  
Max Temperature 48 °F 54 °F 82 °F (2007)
Min Temperature 31 °F 28 °F -1 °F (1919)
Degree Days  
Heating Degree Days 25 24  
Month to date heating degree days 381 483  
Since 1 July heating degree days 647 960  
Cooling Degree Days 0 0  
Month to date cooling degree days 5 0  
Year to date cooling degree days 215 210  
Moisture  
Dew Point 36 °F    
Average Humidity 79    
Maximum Humidity 96    
Minimum Humidity 62    
Precipitation  
Precipitation 0.42 in 0.03 in 0.46 in (2009)
Month to date precipitation 2.55 0.93  
Year to date precipitation 21.24 15.28  
Snow  
Snow 0.00 in - - ()
Snow Depth 0.00 in    
Sea Level Pressure  
Sea Level Pressure 29.98 in    
Wind  
Wind Speed 6 mph (WSW)    
Max Wind Speed 28 mph    
Max Gust Speed 38 mph    
Visibility 10 miles    
Events Rain    
T = Trace of Precipitation, MM = Missing Value Source: NWS Daily Summary

Daily Weather History Graph

Daily Weather History Graph

Search for Another Location

Airport or City:

Trip Planner

Search our weather history database for the weather conditions in past years. The results will help you decide how hot, cold, wet, or windy it might be!

Date:

Astronomy

Oct. 24, 2011 Rise Set
Actual Time 7:48 AM MDT 6:14 PM MDT
Civil Twilight 7:17 AM MDT 6:45 PM MDT
Nautical Twilight 6:41 AM MDT 7:21 PM MDT
Astronomical Twilight 6:06 AM MDT 7:56 PM MDT
Moon 5:03 AM MDT (10/24) 4:46 PM MDT (10/24)
Length of Visible Light 11h 28m
Length of Day
10h 26m
Waning Crescent, 7% of the Moon is Illuminated
Oct 24
Waning Crescent
Oct 26
New
Nov 2
First Quarter
Nov 10
Full
Nov 18
Last Quarter

Hourly Weather History & Observations

Time (MDT) Temp. Windchill Dew Point Humidity Pressure Visibility Wind Dir Wind Speed Gust Speed Precip Events Conditions
12:54 AM 43.0 °F 38.8 °F 30.0 °F 60% 29.97 in 10.0 mi ESE 6.9 mph - N/A   Mostly Cloudy
1:54 AM 43.0 °F 38.2 °F 30.0 °F 60% 29.95 in 10.0 mi South 8.1 mph - N/A   Overcast
4:54 AM 44.1 °F 42.5 °F 34.0 °F 68% 29.93 in 9.0 mi Variable 3.5 mph - 0.00 in Rain Light Rain
5:54 AM 42.1 °F 38.4 °F 39.0 °F 89% 29.96 in 7.0 mi WSW 5.8 mph - 0.06 in Rain Light Rain
6:54 AM 42.1 °F 36.6 °F 39.0 °F 89% 29.97 in 10.0 mi WSW 9.2 mph - 0.03 in Rain Light Rain
7:54 AM 41.0 °F 35.8 °F 39.0 °F 93% 29.98 in 10.0 mi SW 8.1 mph - 0.03 in Rain Light Rain
8:54 AM 41.0 °F 36.4 °F 39.0 °F 93% 29.96 in 10.0 mi SSW 6.9 mph - 0.01 in   Overcast
9:54 AM 42.1 °F - 39.0 °F 89% 29.94 in 10.0 mi Calm Calm - 0.02 in Rain Light Rain
10:54 AM 42.1 °F 39.2 °F 39.9 °F 92% 29.93 in 10.0 mi ENE 4.6 mph - 0.03 in Rain Light Rain
11:54 AM 43.0 °F - 41.0 °F 93% 29.92 in 10.0 mi Calm Calm - 0.01 in Rain Light Rain
12:54 PM 44.1 °F - 41.0 °F 89% 29.91 in 8.0 mi Calm Calm - 0.01 in Rain Light Rain
1:54 PM 46.0 °F 43.1 °F 39.0 °F 76% 29.89 in 10.0 mi West 5.8 mph - 0.02 in   Overcast
2:54 PM 46.9 °F - 39.0 °F 74% 29.88 in 10.0 mi WSW 4.6 mph - N/A   Overcast
4:54 PM 39.9 °F 33.4 °F 37.9 °F 93% 29.97 in 10.0 mi NW 10.4 mph - 0.19 in   Overcast
6:04 PM 39.2 °F - 37.4 °F 93% 29.96 in 10.0 mi Calm Calm - N/A   Overcast
6:54 PM 39.0 °F - 37.0 °F 93% 30.01 in 10.0 mi Calm Calm - N/A   Overcast
7:54 PM 39.0 °F 32.8 °F 36.0 °F 89% 30.03 in 10.0 mi West 9.2 mph - N/A   Mostly Cloudy
8:54 PM 37.0 °F 29.3 °F 34.0 °F 89% 30.08 in 10.0 mi West 11.5 mph - 0.00 in   Overcast
9:54 PM 36.0 °F 27.1 °F 32.0 °F 86% 30.10 in 10.0 mi West 13.8 mph - N/A   Mostly Cloudy
10:54 PM 33.1 °F 24.9 °F 30.0 °F 89% 30.12 in 10.0 mi West 10.4 mph - N/A   Clear
11:54 PM 32.0 °F 23.6 °F 28.9 °F 88% 30.13 in 10.0 mi West 10.4 mph - N/A   Clear